DW5010 Weather Reports


Display with metric or nautical units.
time (UTC)temp
F
wind
direction
speed
MPH
gust
MPH
rain 1hr
in
rain 24hr
in
rain mn
in
humidity
%
barometer
mb
20260831215518 85 225 4.0 12.0 0.00 0.27 0.27 70 1011.4
20260831215016 85 246 3.0 10.0 0.00 0.27 0.27 71 1011.4
20260831214536 84 220 5.0 11.0 0.00 0.27 0.27 70 1011.5
20260831214019 84 205 6.0 11.0 0.00 0.27 0.27 70 1011.6
20260831213519 84 169 4.0 10.0 0.00 0.27 0.27 70 1011.5
20260831213035 84 256 4.0 11.0 0.00 0.27 0.27 70 1011.6
20260831212518 84 198 4.0 11.0 0.00 0.27 0.27 70 1011.7
20260831212018 84 212 4.0 11.0 0.00 0.27 0.27 70 1011.6
20260831211544 84 165 4.0 11.0 0.00 0.27 0.27 69 1011.5
20260831211016 83 249 3.0 9.0 0.00 0.27 0.27 71 1011.3
20260831210523 83 213 3.0 9.0 0.00 0.27 0.27 71 1011.2
20260831210035 83 194 3.0 12.0 0.00 0.27 0.27 71 1011.1
20260831205517 83 178 5.0 12.0 0.00 0.27 0.27 70 1011.1
20260831205024 83 252 3.0 8.0 0.00 0.27 0.27 70 1011.0
20260831204534 83 245 2.0 8.0 0.00 0.27 0.27 71 1011.1
20260831204020 83 221 3.0 8.0 0.00 0.27 0.27 71 1011.0
20260831203520 83 223 2.0 11.0 0.00 0.27 0.27 70 1011.2
20260831203044 83 244 4.0 11.0 0.00 0.27 0.27 69 1011.2
20260831202521 83 221 6.0 11.0 0.00 0.27 0.27 69 1011.3
20260831202022 83 219 3.0 14.0 0.00 0.27 0.27 69 1011.5
20260831201543 83 173 6.0 14.0 0.00 0.27 0.27 68 1011.6
20260831201018 84 250 6.0 12.0 0.00 0.27 0.27 67 1011.3
20260831200515 84 257 4.0 12.0 0.00 0.27 0.27 66 1011.3
20260831200035 84 240 5.0 13.0 0.00 0.27 0.27 66 1011.3
20260831195518 85 211 6.0 13.0 0.00 0.27 0.27 65 1011.2
20260831195018 85 214 6.0 12.0 0.00 0.27 0.27 64 1011.2
20260831194538 85 225 6.0 12.0 0.00 0.27 0.27 63 1011.3
20260831194017 86 233 5.0 15.0 0.00 0.27 0.27 62 1011.3
20260831193516 86 257 6.0 15.0 0.00 0.27 0.27 62 1011.3
20260831193032 87 245 6.0 14.0 0.00 0.27 0.27 61 1011.4
20260831192519 88 193 5.0 15.0 0.00 0.27 0.27 60 1011.4
20260831192023 88 265 7.0 15.0 0.00 0.27 0.27 59 1011.5
20260831191534 88 226 5.0 12.0 0.00 0.27 0.27 60 1011.5
20260831191018 88 247 6.0 15.0 0.00 0.27 0.27 59 1011.4
20260831190518 88 219 6.0 15.0 0.00 0.27 0.27 61 1011.3
20260831190042 88 236 5.0 14.0 0.00 0.27 0.27 62 1011.3
20260831185515 87 200 4.0 14.0 0.00 0.27 0.27 65 1011.2
20260831185016 87 198 4.0 11.0 0.00 0.27 0.27 66 1011.2
20260831184537 86 245 6.0 13.0 0.00 0.27 0.27 67 1011.3
20260831184015 86 160 5.0 13.0 0.00 0.27 0.27 67 1011.4
20260831183520 85 240 3.0 10.0 0.00 0.27 0.27 69 1011.3
20260831183041 85 169 2.0 11.0 0.00 0.27 0.27 68 1011.4
20260831182516 84 184 4.0 11.0 0.00 0.27 0.27 67 1011.4
20260831182018 84 238 5.0 13.0 0.00 0.27 0.27 67 1011.5
20260831181536 84 215 5.0 13.0 0.00 0.27 0.27 66 1011.5
20260831181016 84 233 4.0 12.0 0.00 0.27 0.27 67 1011.6
20260831180516 84 170 5.0 14.0 0.00 0.27 0.27 67 1011.6
20260831180042 84 202 6.0 14.0 0.00 0.27 0.27 65 1011.6
20260831175522 84 247 5.0 12.0 0.00 0.27 0.27 67 1011.7
20260831175021 84 218 5.0 16.0 0.00 0.27 0.27 66 1011.7
20260831174536 84 185 7.0 16.0 0.00 0.27 0.27 66 1011.8
20260831174021 84 215 5.0 18.0 0.00 0.27 0.27 65 1011.8
20260831173520 84 261 6.0 18.0 0.00 0.27 0.27 65 1011.7
20260831173037 84 190 7.0 14.0 0.00 0.27 0.27 66 1011.8
20260831172517 84 217 6.0 20.0 0.00 0.27 0.27 65 1011.9
20260831172019 84 215 8.0 20.0 0.00 0.27 0.27 65 1011.8
20260831171534 84 215 8.0 18.0 0.00 0.27 0.27 64 1011.9
20260831171019 84 200 7.0 15.0 0.00 0.27 0.27 65 1012.0
20260831170516 84 277 6.0 15.0 0.00 0.27 0.27 66 1012.0
20260831170040 83 177 7.0 20.0 0.00 0.27 0.27 66 1012.0
20260831165524 83 219 7.0 20.0 0.00 0.27 0.27 67 1012.0
20260831165020 83 249 7.0 18.0 0.00 0.27 0.27 66 1012.2
20260831164542 83 138 5.0 18.0 0.00 0.27 0.27 68 1012.2
20260831164017 82 191 4.0 14.0 0.00 0.27 0.27 69 1012.1
20260831163517 82 185 7.0 14.0 0.00 0.27 0.27 70 1012.1
20260831163040 81 221 6.0 17.0 0.00 0.27 0.27 72 1012.0
20260831162522 81 146 6.0 19.0 0.00 0.27 0.27 71 1012.2
20260831162021 80 197 9.0 19.0 0.00 0.27 0.27 71 1012.2
20260831161544 80 168 4.0 12.0 0.00 0.27 0.27 73 1012.2
20260831161021 79 211 6.0 12.0 0.00 0.27 0.27 73 1012.2
20260831160517 79 184 4.0 11.0 0.00 0.27 0.27 73 1012.3
20260831160039 79 212 4.0 20.0 0.00 0.27 0.27 72 1012.3
20260831155516 79 194 6.0 20.0 0.00 0.27 0.27 73 1012.4
20260831155017 78 202 5.0 13.0 0.00 0.27 0.27 74 1012.4
20260831154559 78 115 3.0 13.0 0.00 0.27 0.27 74 1012.3
20260831154017 78 224 5.0 13.0 0.00 0.27 0.27 75 1012.5
20260831153520 77 194 3.0 14.0 0.00 0.27 0.27 75 1012.5
20260831153040 78 159 4.0 15.0 0.00 0.27 0.27 74 1012.5
20260831152521 78 158 4.0 15.0 0.00 0.27 0.27 73 1012.5
20260831152021 78 296 4.0 14.0 0.00 0.27 0.27 75 1012.5
20260831151537 77 212 5.0 12.0 0.00 0.27 0.27 76 1012.5
20260831151021 77 167 5.0 15.0 0.00 0.27 0.27 76 1012.5
20260831150518 77 73 4.0 15.0 0.00 0.27 0.27 76 1012.6
20260831150038 77 167 6.0 15.0 0.00 0.27 0.27 76 1012.6
20260831145521 76 184 3.0 12.0 0.00 0.27 0.27 78 1012.5
20260831145018 76 115 7.0 13.0 0.00 0.27 0.27 77 1012.4
20260831144548 75 200 4.0 15.0 0.00 0.27 0.27 78 1012.5
20260831144027 75 209 4.0 17.0 0.00 0.27 0.27 78 1012.4
20260831143516 75 161 4.0 17.0 0.00 0.27 0.27 78 1012.4
20260831143036 75 169 3.0 13.0 0.00 0.27 0.27 80 1012.4
20260831142521 74 152 4.0 13.0 0.00 0.27 0.27 81 1012.3
20260831142018 74 230 3.0 9.0 0.00 0.27 0.27 83 1012.3
20260831141537 73 150 4.0 10.0 0.00 0.27 0.27 83 1012.4
20260831141018 73 142 3.0 10.0 0.00 0.27 0.27 84 1012.4
20260831140518 73 174 3.0 9.0 0.00 0.27 0.27 84 1012.4
20260831140037 72 226 3.0 9.0 0.00 0.27 0.27 84 1012.4
20260831135516 72 120 3.0 8.0 0.00 0.27 0.27 85 1012.5
20260831135019 72 0 2.0 10.0 0.00 0.27 0.27 86 1012.4
20260831134535 72 155 5.0 10.0 0.00 0.27 0.27 85 1012.5
20260831134018 71 159 3.0 9.0 0.00 0.27 0.27 87 1012.5
20260831133517 71 169 1.0 9.0 0.03 0.27 0.27 87 1012.5
20260831133039 71 198 3.0 9.0 0.03 0.27 0.27 88 1012.3
20260831132518 71 0 1.0 6.0 0.03 0.27 0.27 89 1012.3
20260831132017 71 159 1.0 7.0 0.03 0.27 0.27 89 1012.3
20260831131539 71 0 1.0 9.0 0.03 0.27 0.27 89 1012.4
20260831131019 70 66 2.0 9.0 0.03 0.27 0.27 89 1012.3
20260831130517 70 169 1.0 8.0 0.03 0.27 0.27 90 1012.2
20260831130036 70 196 2.0 8.0 0.03 0.27 0.27 90 1012.2
20260831125522 70 148 2.0 7.0 0.03 0.27 0.27 90 1012.2
20260831125016 70 88 3.0 10.0 0.03 0.27 0.27 91 1012.3
20260831124535 70 105 1.0 10.0 0.03 0.27 0.27 91 1012.4
20260831124018 70 195 3.0 10.0 0.03 0.27 0.27 92 1012.4
20260831123516 70 115 2.0 10.0 0.00 0.24 0.24 92 1012.4
20260831123037 69 178 1.0 8.0 0.00 0.24 0.24 92 1012.4
20260831122525 69 120 2.0 8.0 0.00 0.24 0.24 92 1012.4
20260831122017 69 142 1.0 8.0 0.00 0.24 0.24 93 1012.3
20260831121535 69 136 2.0 11.0 0.00 0.24 0.24 93 1012.3
20260831121019 69 126 2.0 11.0 0.00 0.24 0.24 93 1012.4
20260831120517 69 150 1.0 7.0 0.00 0.24 0.24 93 1012.5
20260831120041 69 150 1.0 7.0 0.00 0.24 0.24 93 1012.4
20260831115519 69 176 2.0 7.0 0.00 0.29 0.24 93 1012.5
20260831115016 69 143 1.0 7.0 0.00 0.29 0.24 93 1012.5
20260831114539 69 0 1.0 6.0 0.01 0.29 0.24 93 1012.7
20260831114017 69 173 1.0 6.0 0.01 0.29 0.24 93 1012.5
20260831113618 69 142 1.0 5.0 0.01 0.29 0.24 93 1012.5
20260831113039 69 112 1.0 5.0 0.01 0.29 0.24 93 1012.7
20260831112520 69 175 1.0 5.0 0.05 0.29 0.24 94 1012.6
20260831112017 69 164 1.0 5.0 0.07 0.29 0.24 93 1012.5
20260831111535 69 105 1.0 5.0 0.07 0.29 0.24 93 1012.5
20260831111018 69 162 1.0 5.0 0.09 0.29 0.24 93 1012.5
20260831110516 69 0 1.0 7.0 0.10 0.29 0.24 93 1012.5
20260831110043 69 123 1.0 7.0 0.21 0.29 0.24 94 1012.5
20260831105519 69 123 1.0 6.0 0.24 0.39 0.24 93 1012.7
20260831105019 69 146 1.0 6.0 0.24 0.39 0.24 93 1012.8
20260831104539 69 117 1.0 5.0 0.23 0.38 0.23 93 1012.7
20260831104019 69 163 1.0 5.0 0.23 0.38 0.23 93 1012.7
20260831103517 69 146 1.0 3.0 0.23 0.38 0.23 93 1012.9
20260831103036 70 183 0.0 3.0 0.23 0.38 0.23 93 1013.0
20260831102518 70 126 1.0 2.0 0.18 0.33 0.18 93 1013.2
20260831102018 70 0 0.0 3.0 0.17 0.32 0.17 93 1013.6
20260831101550 69 0 1.0 3.0 0.16 0.31 0.16 93 1013.7
20260831101020 69 0 1.0 3.0 0.15 0.30 0.15 93 1013.8
20260831100519 69 0 0.0 0.0 0.13 0.28 0.13 93 1013.6
20260831100037 69 0 0.0 2.0 0.02 0.17 0.02 93 1013.7
20260831095516 69 0 0.0 2.0 0.00 0.18 0.00 94 1013.5
20260831095016 69 0 0.0 2.0 0.00 0.18 0.00 93 1013.1
20260831094535 69 0 0.0 0.0 0.00 0.18 0.00 94 1012.8
20260831094019 69 0 0.0 0.0 0.00 0.18 0.00 94 1012.8
20260831093523 68 0 0.0 0.0 0.00 0.18 0.00 93 1012.7
20260831093039 68 0 0.0 0.0 0.00 0.18 0.00 93 1012.7
20260831092520 68 0 0.0 0.0 0.00 0.18 0.00 93 1012.7
20260831092020 68 0 0.0 0.0 0.00 0.18 0.00 93 1012.8
20260831091553 68 0 0.0 0.0 0.00 0.18 0.00 93 1012.8
20260831091023 68 0 0.0 0.0 0.00 0.18 0.00 93 1012.9
20260831090518 68 0 0.0 0.0 0.00 0.18 0.00 93 1012.9
20260831090039 68 0 0.0 0.0 0.00 0.18 0.00 93 1012.9
20260831085519 68 0 0.0 0.0 0.00 0.21 0.00 93 1013.0
20260831085019 68 0 0.0 0.0 0.00 0.21 0.00 92 1013.0
20260831084533 68 0 0.0 0.0 0.00 0.21 0.00 92 1013.0
20260831084015 68 0 0.0 0.0 0.00 0.21 0.00 92 1013.0
20260831083519 68 0 0.0 0.0 0.00 0.21 0.00 92 1013.0
20260831083039 68 0 0.0 0.0 0.00 0.21 0.00 92 1013.0
20260831082518 68 0 0.0 0.0 0.00 0.21 0.00 92 1012.9
20260831082018 68 0 0.0 0.0 0.00 0.21 0.00 91 1012.8
20260831081540 69 0 0.0 0.0 0.00 0.21 0.00 92 1012.8
20260831081016 69 0 0.0 0.0 0.00 0.21 0.00 92 1012.8
20260831080518 69 0 0.0 0.0 0.00 0.21 0.00 92 1012.7
20260831080059 69 0 0.0 0.0 0.00 0.21 0.00 92 1012.8
20260831075519 69 0 0.0 0.0 0.00 0.22 0.00 91 1012.9
20260831075019 69 0 0.0 0.0 0.00 0.22 0.00 91 1013.0
20260831074535 69 0 0.0 0.0 0.00 0.22 0.00 91 1013.1
20260831074018 69 0 0.0 0.0 0.00 0.22 0.00 91 1013.2
20260831073517 69 0 0.0 0.0 0.00 0.22 0.00 91 1013.3
20260831073101 69 0 0.0 0.0 0.00 0.22 0.00 91 1013.4
20260831072515 69 0 0.0 0.0 0.00 0.22 0.00 91 1013.5
20260831072021 70 0 0.0 0.0 0.00 0.22 0.00 91 1013.5
20260831071542 70 0 0.0 0.0 0.00 0.22 0.00 90 1013.7
20260831071020 70 0 0.0 2.0 0.00 0.22 0.00 90 1013.8
20260831070517 70 0 0.0 2.0 0.00 0.22 0.00 90 1013.9
20260831070038 70 0 0.0 0.0 0.00 0.22 0.00 90 1014.0
20260831065520 70 0 0.0 3.0 0.00 0.24 0.00 90 1013.9
20260831065019 70 0 0.0 3.0 0.00 0.24 0.00 90 1014.0
20260831064534 70 0 0.0 0.0 0.00 0.24 0.00 90 1014.0
20260831064016 70 0 0.0 0.0 0.00 0.24 0.00 90 1014.0
20260831063518 70 0 0.0 0.0 0.00 0.24 0.00 90 1014.1
20260831063042 70 0 0.0 0.0 0.00 0.24 0.00 90 1014.2
20260831062518 70 0 0.0 0.0 0.00 0.24 0.00 90 1014.2
20260831062016 70 0 0.0 0.0 0.00 0.24 0.00 90 1014.3
20260831061539 70 0 0.0 0.0 0.00 0.24 0.00 90 1014.2
20260831061025 70 0 0.0 0.0 0.00 0.24 0.00 89 1014.0
20260831060522 70 0 0.0 0.0 0.00 0.24 0.00 89 1014.1
20260831060045 70 0 0.0 0.0 0.00 0.24 0.00 89 1014.2
20260831055520 71 0 0.0 0.0 0.00 0.24 0.00 89 1014.2
20260831055019 71 0 0.0 0.0 0.00 0.24 0.00 89 1014.0
20260831054547 71 0 0.0 0.0 0.00 0.24 0.00 89 1014.0
20260831054020 71 0 0.0 0.0 0.00 0.24 0.00 88 1014.1
20260831053519 71 0 0.0 0.0 0.00 0.24 0.00 88 1014.0
20260831053043 71 0 0.0 0.0 0.00 0.24 0.00 87 1014.1
20260831052521 71 0 0.0 0.0 0.00 0.24 0.00 87 1014.1
20260831052019 71 0 0.0 0.0 0.00 0.24 0.00 87 1014.0
20260831051538 71 0 0.0 0.0 0.00 0.24 0.00 87 1014.0
20260831051016 71 0 0.0 0.0 0.00 0.24 0.00 87 1014.0
20260831050517 72 0 0.0 3.0 0.00 0.24 0.00 86 1014.1
20260831050036 72 0 0.0 3.0 0.00 0.24 0.00 86 1014.1
20260831045516 72 5 0.0 3.0 0.00 0.24 0.24 86 1014.1
20260831045018 72 0 0.0 3.0 0.00 0.24 0.24 85 1014.1
20260831044549 72 276 0.0 1.0 0.00 0.24 0.24 85 1014.1
20260831044019 72 297 0.0 4.0 0.00 0.24 0.24 85 1014.1
20260831043520 72 0 0.0 6.0 0.00 0.24 0.24 85 1014.1
20260831043039 72 269 1.0 6.0 0.00 0.24 0.24 85 1014.0
20260831042516 72 243 2.0 6.0 0.00 0.24 0.24 85 1013.9
20260831042018 72 266 2.0 7.0 0.00 0.24 0.24 85 1013.7
20260831041536 72 225 2.0 7.0 0.00 0.24 0.24 85 1013.3
20260831041019 72 198 2.0 7.0 0.00 0.24 0.24 85 1013.6
20260831040516 72 281 2.0 6.0 0.00 0.24 0.24 85 1013.5
20260831040040 72 259 1.0 5.0 0.00 0.24 0.24 85 1013.6
20260831035519 72 218 2.0 5.0 0.00 0.24 0.24 85 1013.4
20260831035017 72 222 1.0 7.0 0.00 0.24 0.24 85 1013.3
20260831034540 72 203 2.0 7.0 0.00 0.24 0.24 85 1013.1
20260831034016 72 259 2.0 8.0 0.00 0.24 0.24 85 1013.3
20260831033518 72 157 4.0 8.0 0.00 0.24 0.24 85 1013.2
20260831033042 72 152 2.0 9.0 0.00 0.24 0.24 86 1013.0
20260831032521 72 198 2.0 9.0 0.00 0.24 0.24 86 1013.0
20260831032019 72 164 3.0 10.0 0.00 0.24 0.24 86 1012.9
20260831031536 72 155 3.0 11.0 0.00 0.24 0.24 86 1013.0
20260831031019 72 107 3.0 11.0 0.00 0.24 0.24 85 1013.2
20260831030519 72 158 4.0 9.0 0.00 0.24 0.24 85 1013.5
20260831030037 72 195 4.0 8.0 0.00 0.24 0.24 85 1013.5
20260831025518 72 235 1.0 10.0 0.00 0.24 0.24 85 1013.7
20260831025026 72 174 4.0 10.0 0.00 0.24 0.24 85 1013.8
20260831024538 72 193 4.0 9.0 0.00 0.24 0.24 85 1013.9
20260831024017 72 230 4.0 8.0 0.00 0.24 0.24 85 1013.9
20260831023517 72 240 3.0 7.0 0.00 0.24 0.24 85 1013.9
20260831023038 72 214 2.0 9.0 0.00 0.24 0.24 85 1013.9
20260831022516 72 146 3.0 9.0 0.00 0.24 0.24 85 1013.8
20260831022016 72 199 3.0 13.0 0.00 0.24 0.24 85 1013.8
20260831021545 72 203 5.0 15.0 0.00 0.24 0.24 85 1013.6
20260831021019 72 226 4.0 15.0 0.00 0.24 0.24 85 1013.6
20260831020517 72 208 4.0 10.0 0.00 0.24 0.24 85 1013.5
20260831020037 72 205 4.0 10.0 0.00 0.24 0.24 85 1013.5
20260831015516 72 163 3.0 13.0 0.00 0.24 0.24 85 1013.7
20260831015017 72 242 5.0 13.0 0.00 0.24 0.24 85 1013.7
20260831014540 72 144 4.0 13.0 0.00 0.24 0.24 85 1013.6
20260831014021 72 190 5.0 13.0 0.00 0.24 0.24 85 1013.5
20260831013518 72 201 3.0 10.0 0.00 0.24 0.24 85 1013.6
20260831013040 72 175 4.0 10.0 0.00 0.24 0.24 86 1013.7
20260831012518 72 205 3.0 13.0 0.00 0.24 0.24 86 1013.8
20260831012019 72 162 3.0 14.0 0.00 0.24 0.24 86 1013.8
20260831011544 72 209 5.0 14.0 0.00 0.24 0.24 86 1013.7
20260831011019 72 159 5.0 13.0 0.00 0.24 0.24 86 1013.6
20260831010516 72 192 7.0 13.0 0.00 0.24 0.24 86 1013.4
20260831010047 72 251 4.0 10.0 0.00 0.24 0.24 86 1013.3
20260831005519 72 180 3.0 11.0 0.00 0.24 0.24 86 1013.3
20260831005020 72 211 4.0 12.0 0.00 0.24 0.24 86 1013.3
20260831004534 72 231 4.0 12.0 0.00 0.24 0.24 86 1013.3
20260831004016 72 188 4.0 11.0 0.00 0.24 0.24 86 1013.2
20260831003516 72 212 4.0 11.0 0.00 0.24 0.24 86 1013.1
20260831003037 73 184 3.0 14.0 0.00 0.24 0.24 86 1013.0
20260831002520 73 263 5.0 14.0 0.00 0.24 0.24 85 1013.0
20260831002020 73 234 4.0 10.0 0.00 0.24 0.24 85 1013.0
20260831001541 73 200 4.0 10.0 0.00 0.24 0.24 85 1012.9
20260831001019 73 196 4.0 10.0 0.00 0.24 0.24 85 1013.0
20260831000517 73 166 2.0 12.0 0.00 0.24 0.24 85 1013.0
20260831000038 73 181 5.0 12.0 0.00 0.24 0.24 84 1012.9
20260830235519 73 222 3.0 11.0 0.00 0.24 0.24 84 1013.0
20260830235015 74 180 3.0 9.0 0.00 0.24 0.24 84 1012.7
20260830234537 74 116 2.0 8.0 0.00 0.24 0.24 84 1012.8
20260830234015 74 210 2.0 8.0 0.00 0.24 0.24 84 1012.9
20260830233515 74 169 2.0 8.0 0.00 0.24 0.24 84 1012.9
20260830233035 74 135 2.0 7.0 0.00 0.24 0.24 84 1013.0
20260830232519 74 175 1.0 7.0 0.00 0.24 0.24 84 1013.1
20260830232017 74 214 1.0 8.0 0.00 0.24 0.24 84 1013.0
20260830231540 74 213 4.0 10.0 0.00 0.24 0.24 84 1013.1
20260830231020 74 233 3.0 11.0 0.00 0.24 0.24 84 1013.0
20260830230519 74 266 3.0 11.0 0.00 0.24 0.24 84 1013.1
20260830230038 74 172 3.0 9.0 0.00 0.24 0.24 84 1013.1
20260830225516 74 0 1.0 11.0 0.00 0.34 0.24 84 1013.0
20260830225018 74 178 4.0 11.0 0.00 0.34 0.24 84 1013.1
20260830224536 74 174 3.0 9.0 0.00 0.34 0.24 84 1013.2
20260830224016 74 194 2.0 9.0 0.00 0.34 0.24 84 1013.0
20260830223517 74 237 2.0 8.0 0.00 0.34 0.24 84 1013.1
20260830223036 74 102 3.0 8.0 0.00 0.34 0.24 84 1012.9
20260830222519 74 144 3.0 10.0 0.00 0.34 0.24 84 1013.0
20260830222019 74 150 4.0 10.0 0.00 0.34 0.24 83 1013.1
20260830221538 74 161 3.0 9.0 0.00 0.34 0.24 83 1013.1
20260830221019 74 157 2.0 10.0 0.00 0.34 0.24 82 1013.2
20260830220518 74 204 3.0 10.0 0.00 0.34 0.24 82 1013.2
20260830220039 74 179 2.0 14.0 0.00 0.34 0.24 82 1013.2